Погода в Акане

Россия / Республика Саха (Якутия)     63°36′00″N   119°05′49″E
темп.,
°C
ветер,
м/с
пор.,
м/с
влажн.,
%
обл.,
%
осадки,
мм/ч
давл.,
гПа
погр.,
м
1 марта, пн
пн100:00−32зюз239597 0.0 103069
03:00−34зюз239792 0.0 103045
06:00−36юз239787 0.0 103048
09:00−37юз249880 0.0 103077
12:00−31зюз259461 0.0 1030316
15:00−28зюз259276 0.0 1028450
18:00−30юз229698 0.0 102819
21:00−34юз129980 0.0 102819
2 марта, вт
вт200:00−36зюз1210045 0.0 102819
03:00−38зюз1110048 0.0 102819
06:00−39зюз1110033 0.0 102718
09:00−39з019928 0.0 102718
12:00−32с019227 0.0 1027236
15:00−29ссв118856 0.0 1025339
18:00−33св119477 0.0 102619
21:00−36всв119667 0.0 102719
3 марта, ср
ср300:00−37св129758 0.0 102719
03:00−38св129869 0.0 102719
06:00−40ссв1110059 0.0 102718
09:00−40ссз119860 0.0 102718
12:00−33сз129171 0.0 1027287
15:00−30зсз238985 0.0 1026452
18:00−32зсз229598 0.0 102622
21:00−34зсз249594 0.0 102794
4 марта, чт
чт400:00−33з3795100 0.0 1027251
03:00−32з3896100 0.1 1026325
06:00−32з4896100 0.1 1026385
09:00−32з4992100 0.2 1026423
12:00−30з4991100 0.0 1026479
15:00−27зсз51089100 0.0 1026631
18:00−27зсз3991100 0.0 1027662
21:00−28зсз3994100 0.0 1029350
5 марта, пт
пт500:00−29з3895100 0.0 1030264
03:00−33з389588 0.0 1031194
06:00−36зюз369515 0.0 1033112
09:00−36зюз36948 0.0 1033134
12:00−30зюз36920 0.0 1033337
15:00−26зюз369018 0.0 1032473
18:00−27зюз229585 0.0 103227
21:00−31зюз229852 0.0 103219